Location: Góry Miechowskie
(50.3599°N, 20.1803°E)
Time: 20:34:29
(UTC+00:00)

Courier 1B - Pass Details

Date: 19 September 2024
Orbit: 962 x 1208 km, 28.3° (Epoch: 13 October)

Event Time Altitude Azimuth Distance (km) Brightness Sun altitude
Rises 13:23:34 0° 231° (SW) 3,854 11.9 29.0°
Reaches altitude 10° 13:28:33 10° 201° (SSW) 2,964 11.1 28.4°
Maximum altitude 13:30:51 12° 182° (S) 2,870 10.6 28.1°
Drops below altitude 10° 13:33:10 10° 164° (SSE) 3,021 10.4 27.8°
Sets 13:38:25 0° 134° (SE) 4,037 10.6 27.1°
